Showing default

KANOPUS-V-IK, 42825

Orbit data source: Space-Track

KANOPUS-V-IK, 42825 is a payload satellite owned by VNIIEM (CIS) in SSO that was launched on Fri, 14 Jul 2017 UTC via a SOYUZ-2-1A launch vehicle from the Tyuratam Missile And Space Complex (TTMTR). Payload-class satellites include a variety of spacecraft equipped with specific instruments for various scientific and technological missions. These include communications satellites like Starlink; space stations such as the ISS; scientific satellites like the Hubble; Earth observation satellites from companies like Planet Labs, Umbra, and HawkEye 360; GPS; miniature CubeSats for education and research; and military/defense satellites.

Loading next visibility...
Identifier
42825, 2017-042A
Orbit
SSO
Last TLE update
3 hours ago
Origin
Manufacturer
VNIIEM
Mission
Operational Civil Imaging
Bus & Motor
KANOPUS, Unknown motor
Mass
550 kg wet, 550 kg dry
Launch date (UTC)
2017-07-14 (8 years ago)
Launch vehicle
SOYUZ-2-1A
Launch site
Tyuratam Missile And Space Complex (TTMTR)
Object type
Payload
Rocket body
Debris
Shape & HBR
Box + 2 Pan, 6 m
Radar Cross Section
1.665 m², Large (>1 m²)

Expand to show TLE details & history

TLE from 3 hours ago
0 KANOPUS-V-IK
1 42825U 17042A   25187.84530240  .00002063  00000-0  91103-4 0  9993
2 42825  97.3768  94.9021 0001620  90.1205 270.0217 15.22847975442801
Epoch: 2025-07-06T20:17Z
TLE epoch observation values (Epoch: 2025-07-06T20:17:14.127Z)
Latitude
-0.00005°
Longitude
-134.4699°
Altitude
500.35 km
Speed
7.614 km/s
True Right ascension
06h 19m 36s
True Declination
0° 00' 00"
Sunlit
Object was in daylight at epoch
Visualization orbit readout
Latitude
-80.14207°
Longitude
-86.54397°
Altitude
526.478 km
Speed
7.598 km/s
Apparent Right ascension
23h 32m 54s
Apparent Declination
-70° 31' 02"
Sunlit
Object is in daylight
Visualization observer readout
Local Sidereal Time
11:04:46
Azimuth
184.574° SSW
Elevation
-59.183°
Doppler factor
1
Orbital elements
Apogee altitude
495.329 km
Perigee altitude
493.103 km
Semi-major axis
6,872.353 km
Eccentricity
0.00016
Inclination
97.3768°
RAAN
94.9021°
Arg. of periapsis
90.1205°
True anomaly
Unknown
Mean anomaly
270.0217°
Eccentric anomaly
Unknown
Mean motion
3.80965 °/min
Orbital period
94.5 mins
BSTAR
0.000091103
Loading maneuver chart data...
Loading SW <> Apogee altitude chart data...

KANOPUS-V-IK Visibility forecast

Observer location: undefined°, undefined°

Span
Click to sort rows by Start time (UTC) header in descending order
Start Az.
Max El. time (UTC)
Max El. Az.
Max El.
End time (UTC)
End Az.
6 mins2025-07-07 06:18:32.051Z26.874° NE2025-07-07 06:21:32.051Z83.558° E33.531°2025-07-07 06:24:32.051Z166.704° S
4 mins2025-07-07 18:30:32.051Z221.52° SW2025-07-07 18:32:32.051Z274.617° WNW24.525°2025-07-07 18:34:32.051Z316.002° NNW
|